TimeCST,TemperatureF,Dew PointF,Humidity,Sea Level PressureIn,VisibilityMPH,Wind Direction,Wind SpeedMPH,Gust SpeedMPH,PrecipitationIn,Events,Conditions,WindDirDegrees,DateUTC
12:53 AM,39.0,32.0,76,30.19,10.0,NE,8.1,-,N/A,,Clear,40,2014-03-06 06:53:00
1:53 AM,35.1,30.0,82,30.20,10.0,NNE,5.8,-,N/A,,Clear,20,2014-03-06 07:53:00
2:53 AM,35.1,30.0,82,30.20,9.0,WNW,4.6,-,N/A,,Clear,300,2014-03-06 08:53:00
3:53 AM,33.1,28.0,82,30.21,8.0,NW,4.6,-,N/A,,Clear,310,2014-03-06 09:53:00
4:53 AM,33.1,28.0,82,30.20,7.0,North,6.9,-,N/A,,Clear,360,2014-03-06 10:53:00
5:53 AM,32.0,28.0,85,30.20,7.0,NW,5.8,-,N/A,,Clear,310,2014-03-06 11:53:00
6:53 AM,30.9,28.0,89,30.21,7.0,Calm,Calm,-,N/A,,Clear,0,2014-03-06 12:53:00
7:53 AM,33.1,28.9,85,30.22,5.0,WNW,3.5,-,N/A,,Clear,290,2014-03-06 13:53:00
8:53 AM,41.0,33.1,73,30.21,7.0,Calm,Calm,-,N/A,,Clear,0,2014-03-06 14:53:00
9:53 AM,48.0,33.1,56,30.20,10.0,West,3.5,-,N/A,,Clear,270,2014-03-06 15:53:00
10:53 AM,53.1,32.0,45,30.19,-9999.0,North,-9999.0,-,N/A,,Unknown,0,2014-03-06 16:53:00
11:53 AM,-9999,-9999,N/A,30.20,-9999.0,North,-9999.0,-,N/A,,Unknown,0,2014-03-06 17:53:00
12:53 PM,-9999,-9999,N/A,30.16,-9999.0,North,-9999.0,-,N/A,,Unknown,0,2014-03-06 18:53:00
1:53 PM,-9999,-9999,N/A,30.12,-9999.0,North,-9999.0,-,N/A,,Unknown,0,2014-03-06 19:53:00
2:53 PM,64.9,24.1,21,30.01,10.0,South,15.0,-,N/A,,Unknown,190,2014-03-06 20:53:00
3:53 PM,66.9,23.0,19,29.98,10.0,South,11.5,18.4,N/A,,Clear,190,2014-03-06 21:53:00
4:53 PM,66.9,19.0,16,29.95,10.0,SSW,12.7,-,N/A,,Clear,200,2014-03-06 22:53:00
5:53 PM,66.9,21.0,17,29.94,10.0,South,12.7,-,N/A,,Clear,170,2014-03-06 23:53:00
6:53 PM,66.0,25.0,21,29.94,10.0,South,6.9,-,N/A,,Clear,170,2014-03-07 00:53:00
7:53 PM,60.1,25.0,26,29.94,10.0,SSE,9.2,-,N/A,,Clear,150,2014-03-07 01:53:00
8:53 PM,60.1,24.1,25,29.94,10.0,SSE,12.7,-,N/A,,Clear,160,2014-03-07 02:53:00
9:53 PM,57.0,23.0,27,29.91,10.0,SSE,12.7,-,N/A,,Clear,160,2014-03-07 03:53:00
10:53 PM,57.9,23.0,26,29.89,10.0,SSE,12.7,-,N/A,,Clear,160,2014-03-07 04:53:00
11:53 PM,57.9,21.9,25,29.94,10.0,South,11.5,-,N/A,,Clear,180,2014-03-07 05:53:00